Weather History for Gwinner, ND

Change the Weather History Date:

Thursday, May 9, 2013

  Actual Average (KP67) Record (KP67)
Temperature  
Mean Temperature 54 °F -  
Max Temperature 66 °F 62 °F 66 °F (1998)
Min Temperature 41 °F 42 °F 32 °F (1997)
Degree Days  
Heating Degree Days 12    
Growing Degree Days 4 (Base 50)    
Moisture  
Dew Point 33 °F    
Average Humidity 46    
Maximum Humidity 82    
Minimum Humidity 26    
Precipitation  
Precipitation 0.00 in - - ()
Sea Level Pressure  
Sea Level Pressure 30.13 in    
Wind  
Wind Speed 18 mph (NNE)    
Max Wind Speed 25 mph    
Max Gust Speed 31 mph    
Visibility 10 miles    
Events      
Averages and records for this station are not official NWS values.
T = Trace of Precipitation, MM = Missing Value Source: NWS Daily Summary

Daily Weather History Graph

Daily Weather History Graph

Search for Another Location

Airport:

Trip Planner

Search our weather history database for the weather conditions in past years. The results will help you decide how hot, cold, wet, or windy it might be!

Date:

Astronomy

May. 09, 2013 Rise Set
Actual Time 6:04 AM CDT 8:49 PM CDT
Civil Twilight 5:30 AM CDT 9:24 PM CDT
Nautical Twilight 4:46 AM CDT 10:08 PM CDT
Astronomical Twilight 3:56 AM CDT 10:59 PM CDT
Moon 5:52 AM CDT (5/9) 8:45 PM CDT (5/9)
Length of Visible Light 15h 53m
Length of Day
14h 44m
Waning Crescent, 0% of the Moon is Illuminated
May 9
Waning Crescent
May 9
New
May 17
First Quarter
May 24
Full
May 31
Last Quarter

Hourly Weather History & Observations

Time (CDT) Temp. Windchill Dew Point Humidity Pressure Visibility Wind Dir Wind Speed Gust Speed Precip Events Conditions
12:15 AM 50.0 °F - 35.6 °F 58% 30.08 in 10.0 mi North 17.3 mph - 0.00 in   Clear
12:55 AM 48.2 °F - 33.8 °F 58% 30.09 in 10.0 mi North 18.4 mph - 0.00 in   Clear
1:35 AM 48.2 °F - 33.8 °F 58% 30.09 in 10.0 mi North 17.3 mph - 0.00 in   Clear
2:15 AM 46.4 °F 39.5 °F 33.8 °F 62% 30.09 in 10.0 mi North 17.3 mph - 0.00 in   Clear
2:35 AM 46.4 °F 39.5 °F 33.8 °F 62% 30.09 in 10.0 mi North 17.3 mph - 0.00 in   Clear
3:15 AM 44.6 °F 36.9 °F 33.8 °F 66% 30.09 in 10.0 mi North 18.4 mph 23.0 mph 0.00 in   Clear
3:55 AM 44.6 °F 37.4 °F 33.8 °F 66% 30.09 in 10.0 mi North 16.1 mph - 0.00 in   Clear
4:55 AM 42.8 °F 34.8 °F 32.0 °F 66% 30.10 in 10.0 mi North 17.3 mph - 0.00 in   Clear
5:55 AM 42.8 °F 35.1 °F 32.0 °F 66% 30.12 in 10.0 mi North 16.1 mph - 0.00 in   Clear
6:35 AM 41.0 °F 31.9 °F 32.0 °F 70% 30.13 in 10.0 mi North 19.6 mph - 0.00 in   Clear
6:55 AM 41.0 °F 32.5 °F 32.0 °F 70% 30.14 in 10.0 mi North 17.3 mph - 0.00 in   Clear
7:15 AM 42.8 °F 34.5 °F 32.0 °F 66% 30.14 in 10.0 mi North 18.4 mph - 0.00 in   Clear
9:15 AM 48.2 °F - 32.0 °F 54% 30.17 in 10.0 mi North 18.4 mph - 0.00 in   Clear
9:35 AM 50.0 °F - 32.0 °F 50% 30.17 in 10.0 mi North 20.7 mph 25.3 mph 0.00 in   Clear
10:15 AM 53.6 °F - 33.8 °F 47% 30.17 in 10.0 mi North 19.6 mph - 0.00 in   Clear
10:35 AM 53.6 °F - 33.8 °F 47% 30.17 in 10.0 mi NNE 21.9 mph 28.8 mph 0.00 in   Clear
10:55 AM 55.4 °F - 32.0 °F 41% 30.17 in 10.0 mi North 25.3 mph 28.8 mph 0.00 in   Clear
11:15 AM 55.4 °F - 32.0 °F 41% 30.17 in 10.0 mi North 24.2 mph 29.9 mph 0.00 in   Clear
11:35 AM 57.2 °F - 32.0 °F 38% 30.17 in 10.0 mi NNE 20.7 mph 27.6 mph 0.00 in   Clear
11:55 AM 57.2 °F - 32.0 °F 38% 30.16 in 9.0 mi NNE 23.0 mph 27.6 mph 0.00 in   Clear
12:15 PM 59.0 °F - 33.8 °F 39% 30.16 in 10.0 mi NNE 21.9 mph 27.6 mph 0.00 in   Clear
12:55 PM 62.6 °F - 32.0 °F 32% 30.15 in 10.0 mi North 20.7 mph 26.5 mph 0.00 in   Clear
1:15 PM 62.6 °F - 32.0 °F 32% 30.14 in 10.0 mi North 23.0 mph 28.8 mph 0.00 in   Clear
1:35 PM 62.6 °F - 32.0 °F 32% 30.14 in 10.0 mi NNE 23.0 mph 27.6 mph 0.00 in   Clear
1:55 PM 64.4 °F - 32.0 °F 30% 30.13 in 10.0 mi NNE 23.0 mph 31.1 mph 0.00 in   Clear
2:15 PM 64.4 °F - 30.2 °F 28% 30.13 in 10.0 mi NNE 19.6 mph 31.1 mph 0.00 in   Clear
2:35 PM 64.4 °F - 32.0 °F 30% 30.13 in 3.0 mi North 21.9 mph 28.8 mph 0.00 in   Clear
3:15 PM 66.2 °F - 30.2 °F 26% 30.12 in 10.0 mi NE 19.6 mph 26.5 mph 0.00 in   Clear
3:35 PM 64.4 °F - 32.0 °F 30% 30.12 in 9.0 mi NNE 18.4 mph 26.5 mph 0.00 in   Clear
3:55 PM 66.2 °F - 30.2 °F 26% 30.12 in 10.0 mi NNE 19.6 mph 23.0 mph 0.00 in   Clear
4:15 PM 66.2 °F - 30.2 °F 26% 30.11 in 7.0 mi NNE 18.4 mph 27.6 mph 0.00 in   Clear
4:35 PM 66.2 °F - 30.2 °F 26% 30.10 in 10.0 mi North 18.4 mph 26.5 mph 0.00 in   Clear
4:55 PM 64.4 °F - 30.2 °F 28% 30.10 in 7.0 mi NE 17.3 mph - 0.00 in   Clear
5:15 PM 66.2 °F - 30.2 °F 26% 30.10 in 10.0 mi NNE 19.6 mph 24.2 mph 0.00 in   Clear
5:35 PM 66.2 °F - 30.2 °F 26% 30.09 in 10.0 mi NNE 18.4 mph 24.2 mph 0.00 in   Clear
5:55 PM 66.2 °F - 30.2 °F 26% 30.09 in 10.0 mi NNE 19.6 mph 25.3 mph 0.00 in   Clear
6:15 PM 64.4 °F - 30.2 °F 28% 30.10 in 10.0 mi NNE 17.3 mph 25.3 mph 0.00 in   Clear
6:35 PM 64.4 °F - 32.0 °F 30% 30.09 in 10.0 mi NE 13.8 mph 19.6 mph 0.00 in   Clear
6:55 PM 64.4 °F - 32.0 °F 30% 30.10 in 10.0 mi NE 13.8 mph - 0.00 in   Clear
7:15 PM 64.4 °F - 32.0 °F 30% 30.10 in 10.0 mi NE 12.7 mph - 0.00 in   Clear
7:35 PM 64.4 °F - 32.0 °F 30% 30.10 in 10.0 mi NNE 11.5 mph - 0.00 in   Clear
7:55 PM 62.6 °F - 32.0 °F 32% 30.10 in 10.0 mi NNE 15.0 mph - 0.00 in   Clear
8:15 PM 60.8 °F - 32.0 °F 34% 30.11 in 10.0 mi North 11.5 mph - 0.00 in   Clear
8:35 PM 59.0 °F - 32.0 °F 36% 30.11 in 9.0 mi North 10.4 mph - 0.00 in   Clear
9:15 PM 55.4 °F - 32.0 °F 41% 30.13 in 10.0 mi NE 9.2 mph - 0.00 in   Clear
9:35 PM 55.4 °F - 39.2 °F 54% 30.14 in 10.0 mi East 6.9 mph - 0.00 in   Clear
9:55 PM 51.8 °F - 41.0 °F 67% 30.15 in 10.0 mi East 8.1 mph - 0.00 in   Clear
10:15 PM 53.6 °F - 42.8 °F 67% 30.15 in 10.0 mi East 8.1 mph - 0.00 in   Clear
10:35 PM 51.8 °F - 42.8 °F 71% 30.16 in 10.0 mi East 6.9 mph - 0.00 in   Clear
10:55 PM 50.0 °F - 42.8 °F 76% 30.16 in 10.0 mi ESE 8.1 mph - 0.00 in   Clear
11:15 PM 50.0 °F - 44.6 °F 82% 30.17 in 10.0 mi East 6.9 mph - 0.00 in   Clear
11:35 PM 50.0 °F - 44.6 °F 82% 30.16 in 10.0 mi ESE 9.2 mph - 0.00 in   Partly Cloudy